Location: Kitt Peak
(31.9514°N, 111.6156°W)
Time: 12:40:28
(UTC-07:00)

ISS - Visible Passes

Search period start: 07 October 2022 00:00
Search period end: 17 October 2022 00:00
Orbit: 415 x 419 km, 51.6° (Epoch: 07 October)

Date Brightness Start Highest point End Pass type
(mag) Time Alt. Az. Time Alt. Az. Time Alt. Az.
07 Oct -1.3 19:20:02 10° WNW 19:22:36 20° SW 19:25:10 10° S visible
08 Oct -2.4 18:31:21 10° WNW 18:34:31 40° SW 18:37:39 10° SSE visible
10 Oct -0.4 18:33:17 10° WSW 18:34:27 11° SW 18:35:37 10° SW visible
